Hettinger, ND

7:36 PM MDT on July 24, 2016 (GMT -0600)
Hettinger Municipal

Weather History for KHEI - December, 2013

Change the Weather History Date:

Thursday, December 5, 2013

  Actual Average Record
Temperature  
Mean Temperature -13 °F -  
Max Temperature -5 °F 32 °F 49 °F (2012)
Min Temperature -22 °F 9 °F -22 °F (2013)
Degree Days  
Heating Degree Days 78 44  
Month to date heating degree days 253 218  
Since 1 July heating degree days 2277 2348  
Moisture  
Dew Point -17 °F    
Average Humidity 75    
Maximum Humidity 83    
Minimum Humidity 64    
Precipitation  
Precipitation 0.00 in 0.01 in 0.02 in (2001)
Month to date precipitation 0.02 0.03  
Year to date precipitation 24.75 15.82  
Sea Level Pressure  
Sea Level Pressure 30.40 in    
Wind  
Wind Speed 16 mph (WNW)    
Max Wind Speed 28 mph    
Max Gust Speed 33 mph    
Visibility 10 miles    
Events      
T = Trace of Precipitation, MM = Missing Value Source: NWS Daily Summary

Daily Weather History Graph

Daily Weather History Graph

Search for Another Location

Airport or City:

Trip Planner

Search our weather history database for the weather conditions in past years. The results will help you decide how hot, cold, wet, or windy it might be!

Date:

Astronomy

Dec. 05, 2013 Rise Set
Actual Time 7:16 AM MST 4:05 PM MST
Civil Twilight 6:42 AM MST 4:39 PM MST
Nautical Twilight 6:05 AM MST 5:17 PM MST
Astronomical Twilight 5:28 AM MST 5:53 PM MST
Moon 9:34 AM MST (12/5) 7:34 PM MST (12/5)
Length of Visible Light 9h 57m
Length of Day
8h 48m
Waxing Crescent, 11% of the Moon is Illuminated
Dec 5
Waxing Crescent
Dec 9
First Quarter
Dec 17
Full
Dec 25
Last Quarter
Jan 1
New

Hourly Weather History & Observations

Time (MST) Temp. Windchill Dew Point Humidity Pressure Visibility Wind Dir Wind Speed Gust Speed Precip Events Conditions
12:53 AM -7.1 °F -28.4 °F -11.9 °F 79% 30.29 in 10.0 mi WNW 15.0 mph - N/A   Clear
1:53 AM -7.1 °F -31.0 °F -13.0 °F 75% 30.30 in 10.0 mi WNW 19.6 mph 27.6 mph N/A   Clear
2:53 AM -8.0 °F -33.9 °F -14.1 °F 75% 30.31 in 10.0 mi WNW 23.0 mph - N/A   Clear
3:39 AM -9.4 °F -32.8 °F -14.8 °F 77% 30.10 in 10.0 mi WNW 17.3 mph - N/A   Scattered Clouds
3:53 AM -9.0 °F -31.7 °F -15.0 °F 75% 30.33 in 10.0 mi West 16.1 mph - N/A   Mostly Cloudy
4:12 AM -9.4 °F -30.6 °F -16.6 °F 71% 30.12 in 10.0 mi WNW 13.8 mph - N/A   Partly Cloudy
4:53 AM -13.0 °F -31.3 °F -18.0 °F 78% 30.35 in 10.0 mi WNW 9.2 mph - N/A   Partly Cloudy
5:53 AM -11.0 °F -34.2 °F -16.1 °F 78% 30.35 in 10.0 mi West 16.1 mph - N/A   Clear
6:53 AM -13.0 °F -36.8 °F -18.0 °F 78% 30.36 in 10.0 mi West 16.1 mph - N/A   Clear
7:53 AM -13.0 °F -40.0 °F -18.9 °F 75% 30.37 in 10.0 mi West 21.9 mph - N/A   Clear
8:53 AM -11.0 °F -37.4 °F -17.0 °F 75% 30.39 in 10.0 mi West 21.9 mph - N/A   Clear
9:53 AM -9.0 °F -34.2 °F -16.1 °F 71% 30.40 in 10.0 mi West 20.7 mph 28.8 mph N/A   Clear
10:53 AM -7.1 °F -32.1 °F -15.0 °F 68% 30.41 in 10.0 mi West 21.9 mph 28.8 mph N/A   Clear
11:53 AM -7.1 °F -31.6 °F -15.0 °F 68% 30.41 in 10.0 mi WNW 20.7 mph 28.8 mph N/A   Clear
12:53 PM -6.0 °F -32.2 °F -14.1 °F 68% 30.39 in 10.0 mi WNW 25.3 mph 31.1 mph N/A   Clear
1:53 PM -6.0 °F -29.0 °F -14.1 °F 68% 30.40 in 10.0 mi WNW 18.4 mph 28.8 mph N/A   Clear
2:53 PM -7.1 °F -32.1 °F -15.0 °F 68% 30.43 in 10.0 mi WNW 21.9 mph - N/A   Clear
3:53 PM -9.0 °F -33.0 °F -16.1 °F 71% 30.44 in 10.0 mi WNW 18.4 mph - N/A   Clear
4:53 PM -11.0 °F -33.5 °F -17.0 °F 75% 30.47 in 10.0 mi WNW 15.0 mph - N/A   Clear
5:53 PM -11.0 °F -34.9 °F -17.0 °F 75% 30.49 in 10.0 mi WNW 17.3 mph - N/A   Clear
6:53 PM -11.9 °F -32.0 °F -18.0 °F 74% 30.52 in 10.0 mi WNW 11.5 mph - N/A   Clear
7:53 PM -15.0 °F -32.4 °F -20.0 °F 78% 30.55 in 10.0 mi WNW 8.1 mph - N/A   Clear
8:53 PM -18.9 °F -38.6 °F -23.1 °F 81% 30.57 in 10.0 mi WNW 9.2 mph - N/A   Clear
9:53 PM -17.0 °F -33.4 °F -22.0 °F 78% 30.56 in 10.0 mi WNW 6.9 mph - N/A   Clear
10:53 PM -20.0 °F -35.3 °F -25.1 °F 78% 30.58 in 10.0 mi NW 5.8 mph - N/A   Clear
11:53 PM -18.9 °F -40.8 °F -23.1 °F 81% 30.58 in 10.0 mi WNW 11.5 mph - N/A   Clear